Weather History for KGGP - April, 2014

Change the Weather History Date:

Sunday, April 13, 2014

  Actual Average Record
Temperature  
Mean Temperature 63 °F -  
Max Temperature 71 °F 52 °F 71 °F (2014)
Min Temperature 55 °F 35 °F 35 °F (2013)
Degree Days  
Heating Degree Days 2    
Growing Degree Days 13 (Base 50)    
Moisture  
Dew Point 53 °F    
Average Humidity 66    
Maximum Humidity 82    
Minimum Humidity 53    
Precipitation  
Precipitation 0.00 in - - ()
Sea Level Pressure  
Sea Level Pressure 29.76 in    
Wind  
Wind Speed 12 mph (SSW)    
Max Wind Speed 22 mph    
Max Gust Speed 29 mph    
Visibility 10 miles    
Events Rain    
Averages and records for this station are not official NWS values.
T = Trace of Precipitation, MM = Missing Value Source: NWS Daily Summary

Daily Weather History Graph

Daily Weather History Graph

Search for Another Location

Airport or City:

Trip Planner

Search our weather history database for the weather conditions in past years. The results will help you decide how hot, cold, wet, or windy it might be!

Date:

Astronomy

Apr. 13, 2014 Rise Set
Actual Time 7:09 AM EDT 8:22 PM EDT
Civil Twilight 6:41 AM EDT 8:51 PM EDT
Nautical Twilight 6:07 AM EDT 9:25 PM EDT
Astronomical Twilight 5:32 AM EDT 10:00 PM EDT
Moon 6:59 PM EDT (4/13) 6:08 AM EDT (4/13)
Length of Visible Light 14h 09m
Length of Day
13h 13m
Waxing Gibbous, 97% of the Moon is Illuminated
Apr 13
Waxing Gibbous
Apr 15
Full
Apr 22
Last Quarter
Apr 29
New
May 6
First Quarter

Hourly Weather History & Observations

Time (EDT) Temp. Dew Point Humidity Pressure Visibility Wind Dir Wind Speed Gust Speed Precip Events Conditions
12:15 AM 59.0 °F 50.0 °F 72% 29.79 in 10.0 mi South 8.1 mph - N/A   Scattered Clouds
12:35 AM 60.8 °F 50.0 °F 68% 29.78 in 10.0 mi SSE 10.4 mph - N/A   Mostly Cloudy
12:55 AM 59.0 °F 50.0 °F 72% 29.78 in 10.0 mi South 8.1 mph - N/A   Scattered Clouds
1:15 AM 60.8 °F 50.0 °F 68% 29.79 in 10.0 mi South 8.1 mph - N/A   Clear
1:35 AM 59.0 °F 50.0 °F 72% 29.79 in 10.0 mi South 9.2 mph - N/A   Clear
1:55 AM 59.0 °F 50.0 °F 72% 29.79 in 10.0 mi South 8.1 mph - N/A   Clear
2:15 AM 59.0 °F 50.0 °F 72% 29.79 in 10.0 mi South 8.1 mph - N/A   Clear
2:35 AM 55.4 °F 50.0 °F 82% 29.78 in 10.0 mi SSE 6.9 mph - N/A   Clear
2:55 AM 57.2 °F 50.0 °F 77% 29.79 in 10.0 mi South 8.1 mph - N/A   Clear
3:15 AM 55.4 °F 50.0 °F 82% 29.79 in 10.0 mi South 9.2 mph - N/A   Clear
3:35 AM 55.4 °F 50.0 °F 82% 29.79 in 10.0 mi South 10.4 mph - N/A   Clear
3:55 AM 55.4 °F 50.0 °F 82% 29.80 in 10.0 mi SSW 9.2 mph - N/A   Clear
4:15 AM 57.2 °F 50.0 °F 77% 29.81 in 10.0 mi SSW 11.5 mph - N/A   Clear
4:55 AM 60.8 °F 51.8 °F 72% 29.79 in 10.0 mi SSW 12.7 mph - N/A   Clear
5:15 AM 60.8 °F 51.8 °F 72% 29.78 in 10.0 mi SSW 13.8 mph - N/A   Clear
5:35 AM 60.8 °F 51.8 °F 72% 29.78 in 10.0 mi SSW 13.8 mph - N/A   Mostly Cloudy
5:55 AM 62.6 °F 51.8 °F 68% 29.79 in 10.0 mi SSW 15.0 mph 20.7 mph N/A   Overcast
6:15 AM 60.8 °F 51.8 °F 72% 29.78 in 10.0 mi SSW 13.8 mph - N/A   Scattered Clouds
6:35 AM 59.0 °F 51.8 °F 77% 29.78 in 10.0 mi SSW 12.7 mph - N/A   Clear
6:55 AM 59.0 °F 51.8 °F 77% 29.78 in 10.0 mi SSW 11.5 mph - N/A   Clear
7:15 AM 59.0 °F 51.8 °F 77% 29.79 in 10.0 mi SSW 12.7 mph - N/A   Clear
7:35 AM 59.0 °F 51.8 °F 77% 29.79 in 10.0 mi SSW 12.7 mph - N/A   Scattered Clouds
7:55 AM 59.0 °F 51.8 °F 77% 29.79 in 10.0 mi SSW 11.5 mph - N/A   Clear
8:15 AM 60.8 °F 53.6 °F 77% 29.81 in 10.0 mi SSW 11.5 mph - N/A   Clear
8:35 AM 60.8 °F 53.6 °F 77% 29.81 in 10.0 mi SSW 15.0 mph - N/A   Clear
8:55 AM 62.6 °F 53.6 °F 72% 29.82 in 10.0 mi SSW 13.8 mph - N/A   Clear
9:15 AM 62.6 °F 53.6 °F 72% 29.81 in 10.0 mi SSW 16.1 mph 19.6 mph N/A   Mostly Cloudy
9:35 AM 64.4 °F 53.6 °F 68% 29.81 in 10.0 mi SSW 13.8 mph - N/A   Mostly Cloudy
9:55 AM 64.4 °F 53.6 °F 68% 29.81 in 10.0 mi SSW 15.0 mph - N/A   Mostly Cloudy
10:15 AM 66.2 °F 53.6 °F 64% 29.81 in 10.0 mi SSW 17.3 mph 21.9 mph N/A   Mostly Cloudy
10:35 AM 66.2 °F 53.6 °F 64% 29.82 in 10.0 mi SSW 18.4 mph 23.0 mph N/A   Overcast
10:55 AM 68.0 °F 53.6 °F 60% 29.82 in 10.0 mi SSW 16.1 mph 19.6 mph N/A   Overcast
11:15 AM 68.0 °F 55.4 °F 64% 29.81 in 10.0 mi SSW 12.7 mph - N/A   Overcast
11:35 AM 68.0 °F 53.6 °F 60% 29.81 in 10.0 mi SW 15.0 mph 23.0 mph N/A   Overcast
11:55 AM 68.0 °F 53.6 °F 60% 29.81 in 10.0 mi SSW 13.8 mph 20.7 mph N/A   Overcast
12:15 PM 69.8 °F 53.6 °F 56% 29.83 in 10.0 mi SW 18.4 mph 26.5 mph N/A   Overcast
12:35 PM 69.8 °F 53.6 °F 56% 29.83 in 10.0 mi SSW 19.6 mph 28.8 mph N/A   Overcast
12:55 PM 69.8 °F 53.6 °F 56% 29.83 in 10.0 mi SW 16.1 mph 23.0 mph N/A   Overcast
1:15 PM 69.8 °F 53.6 °F 56% 29.82 in 10.0 mi SW 21.9 mph - N/A   Mostly Cloudy
1:35 PM 69.8 °F 53.6 °F 56% 29.82 in 10.0 mi SW 18.4 mph 28.8 mph N/A   Mostly Cloudy
1:55 PM 69.8 °F 53.6 °F 56% 29.81 in 10.0 mi SW 19.6 mph 24.2 mph N/A   Mostly Cloudy
2:15 PM 69.8 °F 53.6 °F 56% 29.80 in 10.0 mi SW 16.1 mph 21.9 mph N/A   Scattered Clouds
2:35 PM 68.0 °F 53.6 °F 60% 29.80 in 10.0 mi SSW 15.0 mph 21.9 mph N/A   Mostly Cloudy
2:55 PM 69.8 °F 53.6 °F 56% 29.79 in 10.0 mi SSW 17.3 mph 23.0 mph N/A   Overcast
3:15 PM 71.6 °F 53.6 °F 53% 29.78 in 10.0 mi SSW 17.3 mph 24.2 mph N/A   Mostly Cloudy
3:35 PM 71.6 °F 53.6 °F 53% 29.77 in 10.0 mi SSW 21.9 mph 28.8 mph N/A   Mostly Cloudy
3:55 PM 71.6 °F 53.6 °F 53% 29.76 in 10.0 mi SSW 18.4 mph 27.6 mph N/A   Mostly Cloudy
4:15 PM 71.6 °F 53.6 °F 53% 29.75 in 10.0 mi SSW 15.0 mph 26.5 mph N/A   Overcast
4:35 PM 71.6 °F 55.4 °F 57% 29.75 in 10.0 mi SSW 17.3 mph - N/A   Overcast
4:55 PM 71.6 °F 53.6 °F 53% 29.74 in 10.0 mi SSW 16.1 mph - N/A   Overcast
5:15 PM 69.8 °F 53.6 °F 56% 29.73 in 10.0 mi SSW 18.4 mph 25.3 mph N/A   Overcast
5:35 PM 69.8 °F 53.6 °F 56% 29.72 in 10.0 mi South 11.5 mph - N/A   Overcast
5:55 PM 69.8 °F 53.6 °F 56% 29.71 in 10.0 mi South 10.4 mph - N/A   Overcast
6:15 PM 69.8 °F 53.6 °F 56% 29.71 in 10.0 mi SSW 17.3 mph 23.0 mph N/A   Light Drizzle
6:35 PM 69.8 °F 55.4 °F 60% 29.71 in 10.0 mi SW 12.7 mph - N/A   Overcast
6:55 PM 68.0 °F 55.4 °F 64% 29.69 in 10.0 mi SW 8.1 mph - N/A   Overcast
7:15 PM 66.2 °F 55.4 °F 68% 29.70 in 10.0 mi SW 9.2 mph - N/A   Mostly Cloudy
7:35 PM 66.2 °F 55.4 °F 68% 29.69 in 10.0 mi SW 10.4 mph - N/A   Overcast
7:55 PM 68.0 °F 55.4 °F 64% 29.67 in 10.0 mi SSW 10.4 mph - N/A   Overcast
8:15 PM 64.4 °F 55.4 °F 73% 29.66 in 10.0 mi South 10.4 mph - N/A   Scattered Clouds
8:35 PM 64.4 °F 55.4 °F 73% 29.68 in 10.0 mi SSW 10.4 mph - N/A   Mostly Cloudy
8:55 PM 66.2 °F 53.6 °F 64% 29.68 in 10.0 mi SSW 16.1 mph - N/A   Overcast
9:15 PM 66.2 °F 53.6 °F 64% 29.68 in 10.0 mi SSW 17.3 mph 24.2 mph N/A   Mostly Cloudy
9:35 PM 66.2 °F 53.6 °F 64% 29.66 in 10.0 mi South 12.7 mph - N/A   Scattered Clouds
9:55 PM 66.2 °F 53.6 °F 64% 29.65 in 10.0 mi South 13.8 mph - N/A Rain Light Rain
10:15 PM 64.4 °F 53.6 °F 68% 29.64 in 10.0 mi South 20.7 mph 25.3 mph N/A   Mostly Cloudy
10:35 PM 66.2 °F 53.6 °F 64% 29.63 in 10.0 mi SSW 17.3 mph - N/A   Mostly Cloudy
10:55 PM 64.4 °F 53.6 °F 68% 29.62 in 10.0 mi SSW 13.8 mph - N/A   Mostly Cloudy
11:15 PM 64.4 °F 53.6 °F 68% 29.61 in 10.0 mi South 12.7 mph - N/A   Overcast
11:35 PM 64.4 °F 53.6 °F 68% 29.61 in 10.0 mi South 15.0 mph - N/A   Overcast
11:55 PM 64.4 °F 53.6 °F 68% 29.61 in 10.0 mi SSW 13.8 mph - N/A   Overcast